DELTA 1 DEB, 42083

Orbit data source: Space-Track

DELTA 1 DEB, 42083 is space debris in SSO originally from a launch on Sun, 15 Dec 1968 UTC launched from the Air Force Western Test Range (AFWTR). Debris objects in space refer to the collection of defunct objects orbiting the Earth. Examples of debris include non-operational satellites, rocket bodies, and fragments generated from explosions, collisions, or faulty payload assembly.

Loading next visibility...
Identifier
42083, 1968-114K
Orbit
SSO
Country
Flag of USUS
Related business
Manufacturer
Aerojet
Mission
Spacecraft
Bus & Motor
Unknown
Mass
Unknown
Launch date (UTC)
1968-12-15 (58 years ago)
Launch vehicle
Unknown
Launch site
Air Force Western Test Range (AFWTR)
Object type
Payload
Rocket body
Debris
Shape & HBR
Unknown shape, 0.1 m
Radar Cross Section
Small (<0.1 m²)

Expand to show TLE details & history
Last TLE update: 1 week ago

TLE from 1 week ago
0 DELTA 1 DEB
1 42083U 68114K   26165.85256720 -.00000230  00000-0 -47507-3 0  9995
2 42083 101.8641 203.2000 0283347 112.2532  58.9062 13.02311767 47866
Epoch: 2026-06-14T20:27Z
TLE epoch observation values (Epoch: 2026-06-14T20:27:41.806Z)
Latitude
5.80635°
Longitude
174.34627°
Altitude
1,148.027 km
Speed
7.33 km/s
True Right ascension
01h 37m 40s
True Declination
5° 46' 25"
Sunlit
Object was in daylight at epoch
Visualization orbit readout
Latitude
Unknown
Longitude
Unknown
Altitude
Unknown
Speed
Unknown
Apparent Right ascension
Unknown
Apparent Declination
Unknown
Sunlit
N/A
Visualization observer readout
Local Sidereal Time
21:46:56
Azimuth
Unknown
Elevation
Unknown
Doppler factor
Unknown
Orbital elements
Apogee altitude
1,466.684 km
Perigee altitude
1,034.373 km
Semi-major axis
7,628.665 km
Eccentricity
0.02833
Inclination
101.8641°
RAAN
203.2°
Arg. of periapsis
112.2532°
True anomaly
61.73722°
Mean anomaly
58.9062°
Eccentric anomaly
60.31662°
Mean motion
3.25739 °/min
Orbital period
110.52 mins
BSTAR
-0.00047507
Loading maneuver chart data...
Computing Atmospheric mass density...
Loading historical data...
Loading historical data...
Loading historical data...
Loading historical data...
Loading historical data...
Loading historical data...
Loading historical data...

Documentation

Showing up to 5 results
|